EW7069 Weather Reports


Display with metric or nautical units.
time (UTC)temp
F
wind
direction
speed
MPH
gust
MPH
rain 1hr
in
rain 24hr
in
rain mn
in
humidity
%
barometer
mb
20260509033004 48 0 0.0 0.0 0.00 0.00 0.00 56 995.1
20260509032003 48 0 0.0 0.0 0.00 0.00 0.00 53 994.6
20260509031003 48 0 0.0 0.0 0.00 0.00 0.00 52 994.6
20260509030004 49 0 0.0 0.0 0.00 0.00 0.00 51 994.1
20260509025003 50 0 0.0 0.0 0.00 0.00 0.00 48 994.6
20260509024003 51 0 0.0 0.0 0.00 0.00 0.00 48 994.3
20260509023004 52 0 0.0 0.0 0.00 0.00 0.00 46 994.5
20260509022003 53 225 0.0 1.0 0.00 0.00 0.00 49 994.6
20260509020005 54 225 0.0 1.0 0.00 0.00 0.00 51 995.1
20260509015004 55 225 1.0 2.0 0.00 0.00 0.00 51 996.1
20260509014003 55 225 2.0 4.0 0.00 0.00 0.00 51 997.3
20260509013003 54 225 1.0 4.0 0.00 0.00 0.00 52 998.9
20260509012004 54 225 0.0 1.0 0.00 0.00 0.00 50 1000.8
20260509011003 55 225 0.0 2.0 0.00 0.00 0.00 48 1003.1
20260509010003 56 225 0.0 1.0 0.00 0.00 0.00 46 996.6
20260509005004 57 225 1.0 3.0 0.00 0.00 0.00 44 1000.0
20260509004003 57 225 1.0 3.0 0.00 0.00 0.00 42 1001.1
20260509003004 58 225 1.0 2.0 0.00 0.00 0.00 39 1001.9
20260509002004 60 225 2.0 3.0 0.00 0.00 0.00 34 1002.8
20260509001004 61 225 4.0 6.0 0.00 0.00 0.00 32 1003.8
20260509000003 61 225 4.0 9.0 0.00 0.00 0.00 29 1004.9
20260508235004 62 225 3.0 4.0 0.00 0.00 0.00 26 1006.2
20260508234004 63 225 3.0 6.0 0.00 0.00 0.00 24 1006.0
20260508232004 63 225 6.0 9.0 0.00 0.00 0.00 21 1006.7
20260508230003 64 225 6.0 9.0 0.00 0.00 0.00 23 1006.9
20260508225004 65 225 4.0 4.0 0.00 0.00 0.00 23 1006.6
20260508224003 67 225 6.0 8.0 0.00 0.00 0.00 21 1006.4
20260508222004 69 225 5.0 7.0 0.00 0.00 0.00 21 1003.9
20260508221004 68 225 7.0 11.0 0.00 0.00 0.00 19 1002.9
20260508220003 71 225 5.0 8.0 0.00 0.00 0.00 19 1002.4
20260508215004 69 225 4.0 6.0 0.00 0.00 0.00 20 1001.0
20260508214004 70 225 5.0 9.0 0.00 0.00 0.00 18 1000.5
20260508212004 67 225 5.0 7.0 0.00 0.00 0.00 23 998.7
20260508211004 68 225 4.0 7.0 0.00 0.00 0.00 19 998.4
20260508210004 71 225 5.0 9.0 0.00 0.00 0.00 20 998.0
20260508205004 67 225 7.0 13.0 0.00 0.00 0.00 21 997.1
20260508204003 64 225 6.0 11.0 0.00 0.00 0.00 21 996.8
20260508203004 65 280 7.0 11.0 0.00 0.00 0.00 19 996.9
20260508202003 68 229 10.0 13.0 0.00 0.00 0.00 17 1005.7
20260508201004 70 225 7.0 8.0 0.00 0.00 0.00 19 1005.3
20260508200004 65 225 6.0 10.0 0.00 0.00 0.00 23 1004.9
20260508194004 66 293 7.0 11.0 0.00 0.00 0.00 23 1004.4
20260508193004 65 314 4.0 5.0 0.00 0.00 0.00 24 1004.3
20260508191003 66 6 6.0 14.0 0.00 0.00 0.00 22 1003.9
20260508190004 66 335 6.0 9.0 0.00 0.00 0.00 24 1003.5
20260508185004 65 299 8.0 12.0 0.00 0.00 0.00 23 1003.2
20260508183004 64 22 6.0 11.0 0.00 0.00 0.00 21 1002.3
20260508182004 66 31 6.0 11.0 0.00 0.00 0.00 23 1001.9
20260508181003 65 204 6.0 11.0 0.00 0.00 0.00 23 1001.7
20260508180004 64 291 8.0 15.0 0.00 0.00 0.00 20 1001.4
20260508175004 64 267 8.0 11.0 0.00 0.00 0.00 21 1001.1
20260508174003 64 225 8.0 15.0 0.00 0.00 0.00 19 1001.1
20260508173004 65 225 5.0 10.0 0.00 0.00 0.00 23 1001.1
20260508172004 64 225 6.0 11.0 0.00 0.00 0.00 23 1001.2
20260508171004 63 225 7.0 11.0 0.00 0.00 0.00 21 1001.1
20260508170004 62 225 5.0 9.0 0.00 0.00 0.00 24 1000.5
20260508165004 62 225 5.0 11.0 0.00 0.00 0.00 24 1000.3
20260508164003 62 225 4.0 6.0 0.00 0.00 0.00 29 999.9
20260508163004 63 225 4.0 8.0 0.00 0.00 0.00 28 999.6
20260508162004 62 225 2.0 7.0 0.00 0.00 0.00 30 999.5
20260508161004 61 225 4.0 8.0 0.00 0.00 0.00 33 999.3
20260508160004 60 225 5.0 8.0 0.00 0.00 0.00 33 999.2
20260508155003 60 223 4.0 7.0 0.00 0.00 0.00 32 999.2
20260508153004 61 214 3.0 4.0 0.00 0.00 0.00 33 998.9
20260508152005 60 110 1.0 3.0 0.00 0.00 0.00 38 998.9
20260508151004 59 270 3.0 4.0 0.00 0.00 0.00 35 998.8
20260508150004 59 270 3.0 4.0 0.00 0.00 0.00 38 998.8
20260508145004 59 247 3.0 4.0 0.00 0.00 0.00 37 998.7
20260508144004 58 5 2.0 2.0 0.00 0.00 0.00 37 998.6
20260508143004 58 299 2.0 3.0 0.00 0.00 0.00 44 998.7
20260508142004 57 270 1.0 2.0 0.00 0.00 0.00 46 998.6
20260508141004 56 270 1.0 2.0 0.00 0.00 0.00 49 998.7
20260508140005 54 270 2.0 3.0 0.00 0.00 0.00 51 998.7
20260508135004 53 270 3.0 4.0 0.00 0.00 0.00 57 998.7
20260508134004 53 270 3.0 4.0 0.00 0.00 0.00 59 998.8
20260508133004 52 270 3.0 4.0 0.00 0.00 0.00 62 998.8
20260508132004 51 270 3.0 4.0 0.00 0.00 0.00 65 998.9
20260508131005 51 270 3.0 5.0 0.00 0.00 0.00 71 999.0
20260508130004 50 270 3.0 6.0 0.00 0.00 0.00 79 999.1
20260508125004 49 270 4.0 6.0 0.00 0.00 0.00 85 999.2
20260508124004 47 270 4.0 6.0 0.00 0.00 0.00 88 999.3
20260508123005 44 270 3.0 4.0 0.00 0.00 0.00 89 999.5
20260508121003 40 270 1.0 4.0 0.00 0.00 0.00 89 999.5
20260508120003 39 270 0.0 1.0 0.00 0.00 0.00 89 999.7
20260508115003 38 0 0.0 0.0 0.00 0.00 0.00 88 999.7
20260508112004 35 0 0.0 0.0 0.00 0.00 0.00 84 999.4
20260508110004 34 0 0.0 0.0 0.00 0.00 0.00 83 998.4
20260508105003 34 0 0.0 0.0 0.00 0.00 0.00 83 998.3
20260508104004 34 0 0.0 0.0 0.00 0.00 0.00 83 997.3
20260508103003 34 0 0.0 0.0 0.00 0.00 0.00 83 996.7
20260508102003 35 0 0.0 0.0 0.00 0.00 0.00 83 996.6
20260508101004 35 0 0.0 0.0 0.00 0.00 0.00 83 996.6
20260508100004 35 0 0.0 0.0 0.00 0.00 0.00 82 996.8
20260508095003 35 0 0.0 0.0 0.00 0.00 0.00 82 997.1
20260508094003 35 0 0.0 0.0 0.00 0.00 0.00 82 996.7
20260508093003 35 0 0.0 0.0 0.00 0.00 0.00 82 996.8
20260508091003 36 0 0.0 0.0 0.00 0.00 0.00 81 997.1
20260508090004 36 0 0.0 0.0 0.00 0.00 0.00 81 996.9
20260508085003 36 0 0.0 0.0 0.00 0.00 0.00 81 997.3
20260508084003 36 0 0.0 0.0 0.00 0.00 0.00 81 997.4
20260508083003 37 0 0.0 0.0 0.00 0.00 0.00 81 997.1
20260508082003 37 0 0.0 0.0 0.00 0.00 0.00 81 997.2
20260508081004 38 0 0.0 0.0 0.00 0.00 0.00 85 997.4
20260508080003 38 0 0.0 0.0 0.00 0.00 0.00 85 997.7
20260508075003 39 0 0.0 0.0 0.00 0.00 0.00 85 997.5
20260508074003 39 0 0.0 0.0 0.00 0.00 0.00 84 997.6
20260508073002 38 0 0.0 0.0 0.00 0.00 0.00 84 997.9
20260508071002 37 0 0.0 0.0 0.00 0.00 0.00 78 998.0
20260508070002 36 0 0.0 0.0 0.00 0.00 0.00 78 997.8
20260508065002 36 0 0.0 0.0 0.00 0.00 0.00 76 998.0
20260508064002 36 0 0.0 0.0 0.00 0.00 0.00 76 998.1
20260508062002 37 0 0.0 0.0 0.00 0.00 0.00 74 998.0
20260508060002 38 0 0.0 0.0 0.00 0.00 0.00 78 998.6
20260508055002 39 0 0.0 0.0 0.00 0.00 0.00 78 998.5
20260508054002 39 0 0.0 0.0 0.00 0.00 0.00 77 998.3
20260508053002 39 0 0.0 0.0 0.00 0.00 0.00 77 998.4
20260508052002 39 0 0.0 0.0 0.00 0.00 0.00 77 998.6
20260508051002 39 0 0.0 0.0 0.00 0.00 0.00 77 998.7
20260508045002 38 0 0.0 0.0 0.00 0.00 0.00 74 998.4
20260508044002 38 0 0.0 0.0 0.00 0.00 0.00 73 998.6
20260508043003 39 0 0.0 0.0 0.00 0.00 0.00 72 998.8
20260508042002 39 0 0.0 0.0 0.00 0.00 0.00 71 998.9
20260508041002 40 0 0.0 0.0 0.00 0.00 0.00 70 999.0
20260508040003 40 0 0.0 0.0 0.00 0.00 0.00 69 999.2